View from above orbital plane
|
View from above satellite
|
Ground track
|
The orbit data is extracted from the following two-line orbital elements,
1 25994U 99068A 13169.35947871 .00000152 00000-0 43867-4 0 2224
2 25994 098.2063 244.2828 0001448 096.6514 263.4846 14.57112681718080
| Epoch (UTC): | 18 June 2013 08:37:38 |
| Eccentricity: | 0.0001448 |
| inclination: | 98.2063° |
| perigee height: | 701 km |
| apogee height: | 703 km |
| right ascension of ascending node: | 244.2828° |
| argument of perigee: | 96.6514° |
| revolutions per day: | 14.57112681 |
| mean anomaly at epoch: | 263.4846° |
| orbit number at epoch: | 71808 |
The dashed part of the orbit path shows where the satellite is in the earth's shadow,
|
|